This is the latest recevied weather packets stored in our database for station/object KB4MOX. If no packets are shown the sender has not sent any weather packets the latest 10 day(s).
| Time | Temp. | Humidity | Pressure | Rain* | Wind** | Luminosity | Snow |
|---|---|---|---|---|---|---|---|
| 1788047056 | 27.78° C | 73% | 1019.1 hPa | 0 mm | - | 13 W/m² | - |
| 1788046755 | 28.33° C | 72% | 1019.4 hPa | 0 mm | - | 17 W/m² | - |
| 1788046449 | 28.33° C | 72% | 1019.4 hPa | 0 mm | - | 20 W/m² | - |
| 1788046148 | 28.89° C | 71% | 1019.3 hPa | 0 mm | - | 24 W/m² | - |
| 1788045843 | 28.89° C | 71% | 1019.2 hPa | 0 mm | - | 30 W/m² | - |
| 1788045538 | 28.89° C | 71% | 1019.2 hPa | 0 mm | - | 39 W/m² | - |
| 1788045234 | 28.89° C | 70% | 1019.3 hPa | 0 mm | - | 46 W/m² | - |
| 1788044929 | 28.89° C | 70% | 1019.2 hPa | 0 mm | - | 62 W/m² | - |
| 1788044627 | 28.89° C | 70% | 1019.4 hPa | 0 mm | - | 76 W/m² | - |
| 1788044327 | 28.89° C | 70% | 1019.3 hPa | 0 mm | - | 47 W/m² | - |
| 1788044023 | 28.89° C | 69% | 1019.4 hPa | 0 mm | - | 71 W/m² | - |
| 1788043718 | 28.89° C | 69% | 1019.4 hPa | 0 mm | - | 56 W/m² | - |
| 1788043414 | 28.89° C | 69% | 1019.3 hPa | 0 mm | - | 67 W/m² | - |
| 1788043113 | 29.44° C | 69% | 1019.5 hPa | 0 mm | - | 73 W/m² | - |
| 1788042808 | 29.44° C | 69% | 1019 hPa | 0 mm | - | 79 W/m² | - |
| 1788042507 | 29.44° C | 68% | 1019 hPa | 0 mm | - | 76 W/m² | - |
| 1788042203 | 29.44° C | 69% | 1019.3 hPa | 0 mm | - | 82 W/m² | - |
| 1788041898 | 29.44° C | 68% | 1019.3 hPa | 0 mm | - | 85 W/m² | - |
| 1788041593 | 30° C | 67% | 1019.4 hPa | 0 mm | - | 93 W/m² | - |
| 1788041293 | 30° C | 67% | 1019.3 hPa | 0 mm | - | 106 W/m² | - |
| 1788040992 | 30° C | 65% | 1019.3 hPa | 0 mm | - | 113 W/m² | - |
| 1788040690 | 30° C | 65% | 1019.2 hPa | 0 mm | - | 115 W/m² | - |
| 1788040385 | 30° C | 64% | 1019.3 hPa | 0 mm | - | 113 W/m² | - |
| 1788040080 | 30.56° C | 63% | 1019.1 hPa | 0 mm | - | 108 W/m² | - |
| 1788039775 | 31.11° C | 62% | 1019.1 hPa | 0 mm | - | 111 W/m² | - |
* Rain latest hour (hover to see other rain measurements)
** Current wind speed in m/s (hover to see current wind gust speed)